Hourly Data Report for October 03, 2012

All times are specified in Local Standard Time (LST). Add 1 hour to adjust for Daylight Saving Time where and when it is observed.

ST LEONARD CS
NEW BRUNSWICK

47°09'28.050" N
67°49'55.014" W
245.00 m
810I001
71019
WIY

Download Data

Hourly Data (October 2012)
Hourly Data Report for October 3, 2012
Temp Definition
°C
Dew Point Temp Definition
°C
Rel Hum Definition
%
Wind Dir Definition
10's deg

Wind Spd Definition
km/h
Visibility Definition
km
Stn Press Definition
kPa
Hmdx Definition


Wind Chill Definition


Weather Definition


TIME
00:00 10.3 8.0 86 27 4   98.65     LegendNANA
01:00 8.7 7.9 95   0   98.69     LegendNANA
02:00 8.4 7.7 95 31 4   98.72     LegendNANA
03:00 9.3 7.1 86 30 2   98.77     LegendNANA
04:00 6.5 5.8 95   0   98.84     LegendNANA
05:00 6.3 5.8 97   0   98.88     LegendNANA
06:00 5.3 4.7 96   0   98.93     LegendNANA
07:00 5.9 5.4 97   0   99.00     LegendNANA
08:00 9.5 8.4 93 32 4   99.06     LegendNANA
09:00 11.6 9.2 85 30 11   99.13     LegendNANA
10:00 13.2 9.5 78 31 9   99.17     LegendNANA
11:00 15.2 8.1 63 33 9   99.17     LegendNANA
12:00 17.0 6.3 49 32 9   99.16     LegendNANA
13:00 18.2 5.5 43 31 6   99.12     LegendNANA
14:00 18.9 5.2 41 31 7   99.10     LegendNANA
15:00 19.8 3.6 34 32 7   99.12     LegendNANA
16:00 19.6 2.2 31 31 9   99.09     LegendNANA
17:00 19.2 1.2 30 35 6   99.13     LegendNANA
18:00 15.6 5.8 52   0   99.18     LegendNANA
19:00 10.0 5.5 74   0   99.23     LegendNANA
20:00 9.1 4.3 72 35 4   99.29     LegendNANA
21:00 9.5 4.9 73 2 6   99.33     LegendNANA
22:00 8.6 4.4 75 2 4   99.40     LegendNANA
23:00 6.4 4.3 86 2 4   99.41     LegendNANA

Notes on Data Quality.

Legend

  • E = Estimated
  • M = Missing
  • NA = Not Available
  • ‡ = Partner data that is not subject to review by the National Climate Archives
Date modified: